Precipitable_Water
0.60 0.60 0.60 0.60 0.61 0.61 0.61 0.61 0.61 0.60 0.60 0.61 0.63 0.67 0.69 0.70 0.72 0.73 0.74 0.75 0.75 0.76 0.76 0.75 0.74 0.70 0.69 0.69 0.69 0.64 0.58 0.49 0.51 0.53 0.49 0.45 0.53 0.51 0.48 0.45 0.41 0.37 0.32 0.27 0.34 0.37 0.35 0.38 0.38 0.38 0.34 0.30 0.33 0.35 0.37 0.37 0.33 0.32 0.29 0.31 0.31 0.31 0.28 0.28 0.26 0.27 0.28 0.25 0.26 0.24 0.26 0.25 0.24 0.27 0.27 0.29 0.28 0.28 0.28 0.27 0.30 0.30 0.27 0.37 0.48 0.62 0.81 0.82
0.61 0.61 0.61 0.61 0.61 0.61 0.61 0.62 0.62 0.61 0.61 0.62 0.64 0.67 0.70 0.71 0.72 0.73 0.74 0.74 0.75 0.75 0.76 0.76 0.74 0.72 0.70 0.71 0.71 0.68 0.55 0.51 0.48 0.51 0.46 0.58 0.58 0.52 0.44 0.42 0.38 0.34 0.30 0.27 0.32 0.36 0.34 0.34 0.35 0.35 0.31 0.30 0.36 0.32 0.35 0.29 0.33 0.28 0.29 0.31 0.30 0.32 0.30 0.30 0.29 0.29 0.28 0.27 0.26 0.26 0.26 0.26 0.25 0.27 0.29 0.27 0.27 0.27 0.26 0.27 0.28 0.28 0.31 0.44 0.48 0.78 0.79 0.78
0.62 0.62 0.61 0.60 0.60 0.61 0.62 0.62 0.62 0.62 0.63 0.65 0.66 0.68 0.69 0.71 0.72 0.72 0.73 0.74 0.74 0.75 0.76 0.76 0.75 0.72 0.72 0.72 0.71 0.67 0.56 0.52 0.60 0.57 0.57 0.62 0.55 0.50 0.44 0.37 0.35 0.31 0.27 0.29 0.38 0.37 0.33 0.34 0.35 0.32 0.31 0.31 0.33 0.30 0.32 0.27 0.31 0.31 0.29 0.27 0.30 0.32 0.30 0.29 0.29 0.29 0.29 0.29 0.27 0.26 0.25 0.26 0.27 0.29 0.29 0.27 0.26 0.27 0.26 0.27 0.29 0.28 0.41 0.62 0.73 0.73 0.78 0.76
0.62 0.62 0.61 0.60 0.60 0.61 0.62 0.62 0.61 0.63 0.66 0.66 0.67 0.67 0.68 0.70 0.71 0.71 0.71 0.72 0.74 0.75 0.76 0.76 0.75 0.73 0.72 0.71 0.72 0.69 0.67 0.60 0.53 0.52 0.54 0.54 0.46 0.42 0.38 0.33 0.32 0.30 0.31 0.39 0.44 0.35 0.34 0.32 0.31 0.32 0.32 0.31 0.32 0.33 0.28 0.28 0.29 0.30 0.28 0.26 0.27 0.29 0.28 0.30 0.30 0.30 0.29 0.29 0.28 0.27 0.27 0.26 0.27 0.27 0.28 0.27 0.26 0.26 0.27 0.26 0.26 0.31 0.48 0.64 0.70 0.77 0.80 0.78
0.62 0.61 0.61 0.60 0.60 0.60 0.61 0.61 0.62 0.65 0.66 0.67 0.66 0.67 0.67 0.68 0.69 0.71 0.71 0.71 0.73 0.75 0.76 0.77 0.75 0.74 0.73 0.73 0.70 0.70 0.64 0.58 0.45 0.55 0.54 0.49 0.41 0.36 0.34 0.31 0.31 0.33 0.37 0.41 0.44 0.32 0.31 0.29 0.27 0.28 0.29 0.28 0.31 0.30 0.29 0.31 0.32 0.31 0.28 0.29 0.29 0.31 0.29 0.30 0.31 0.30 0.29 0.29 0.27 0.27 0.26 0.25 0.28 0.27 0.26 0.26 0.25 0.25 0.27 0.29 0.29 0.30 0.36 0.60 0.72 0.75 0.80 0.76
0.62 0.60 0.60 0.59 0.58 0.59 0.60 0.60 0.62 0.64 0.65 0.66 0.66 0.67 0.66 0.66 0.67 0.69 0.70 0.71 0.73 0.75 0.76 0.76 0.75 0.73 0.75 0.73 0.70 0.67 0.62 0.30 0.55 0.57 0.58 0.51 0.40 0.35 0.33 0.31 0.33 0.39 0.41 0.40 0.44 0.32 0.29 0.27 0.27 0.26 0.28 0.28 0.28 0.27 0.28 0.31 0.33 0.27 0.30 0.30 0.30 0.31 0.29 0.31 0.30 0.30 0.29 0.27 0.26 0.26 0.27 0.27 0.27 0.25 0.27 0.25 0.25 0.28 0.30 0.29 0.29 0.29 0.29 0.73 0.70 0.77 0.66 0.70
0.60 0.58 0.57 0.57 0.57 0.57 0.57 0.58 0.59 0.60 0.62 0.63 0.64 0.65 0.65 0.65 0.67 0.69 0.70 0.71 0.72 0.75 0.76 0.75 0.74 0.73 0.73 0.73 0.67 0.58 0.50 0.53 0.63 0.60 0.55 0.50 0.45 0.35 0.34 0.33 0.39 0.39 0.42 0.40 0.43 0.32 0.29 0.28 0.28 0.27 0.28 0.29 0.29 0.29 0.29 0.29 0.30 0.29 0.27 0.31 0.31 0.33 0.31 0.32 0.30 0.30 0.29 0.27 0.26 0.27 0.28 0.26 0.26 0.24 0.27 0.26 0.28 0.28 0.31 0.32 0.32 0.32 0.31 0.36 0.49 0.60 0.62 0.68
0.59 0.57 0.56 0.55 0.55 0.55 0.56 0.56 0.56 0.57 0.59 0.59 0.60 0.61 0.62 0.63 0.66 0.69 0.71 0.71 0.73 0.75 0.76 0.74 0.74 0.74 0.74 0.62 0.55 0.52 0.54 0.53 0.66 0.61 0.56 0.50 0.49 0.37 0.36 0.35 0.37 0.38 0.39 0.42 0.43 0.30 0.29 0.26 0.27 0.29 0.28 0.27 0.28 0.28 0.29 0.29 0.30 0.28 0.28 0.30 0.30 0.32 0.31 0.31 0.30 0.29 0.28 0.27 0.27 0.27 0.26 0.26 0.26 0.26 0.27 0.27 0.29 0.29 0.30 0.32 0.32 0.33 0.32 0.31 0.60 0.64 0.65 0.68
0.58 0.57 0.55 0.53 0.53 0.54 0.55 0.54 0.55 0.57 0.60 0.61 0.60 0.59 0.60 0.64 0.66 0.69 0.71 0.72 0.74 0.75 0.75 0.74 0.72 0.74 0.74 0.66 0.53 0.52 0.52 0.65 0.71 0.60 0.56 0.49 0.47 0.42 0.35 0.32 0.37 0.37 0.38 0.43 0.39 0.31 0.27 0.25 0.27 0.28 0.25 0.26 0.27 0.26 0.28 0.28 0.26 0.28 0.28 0.30 0.29 0.29 0.29 0.29 0.28 0.28 0.28 0.27 0.27 0.25 0.25 0.27 0.29 0.30 0.27 0.29 0.29 0.32 0.35 0.33 0.32 0.31 0.32 0.35 0.38 0.56 0.49 0.53
0.58 0.57 0.54 0.52 0.52 0.53 0.53 0.53 0.56 0.60 0.63 0.63 0.61 0.60 0.64 0.64 0.64 0.68 0.71 0.73 0.74 0.75 0.73 0.72 0.73 0.74 0.64 0.52 0.51 0.43 0.58 0.74 0.70 0.56 0.51 0.50 0.48 0.42 0.37 0.36 0.35 0.40 0.38 0.38 0.34 0.30 0.27 0.27 0.26 0.27 0.26 0.26 0.29 0.27 0.29 0.29 0.28 0.32 0.30 0.30 0.30 0.30 0.30 0.29 0.26 0.26 0.27 0.26 0.27 0.25 0.25 0.26 0.30 0.30 0.27 0.31 0.36 0.36 0.34 0.33 0.32 0.32 0.33 0.34 0.36 0.38 0.44 0.48
0.58 0.57 0.54 0.52 0.52 0.52 0.52 0.53 0.57 0.62 0.64 0.63 0.62 0.63 0.63 0.62 0.63 0.68 0.73 0.74 0.74 0.74 0.72 0.71 0.72 0.68 0.55 0.59 0.50 0.44 0.61 0.64 0.70 0.56 0.49 0.52 0.48 0.43 0.38 0.41 0.39 0.39 0.39 0.39 0.33 0.32 0.31 0.30 0.30 0.30 0.29 0.26 0.30 0.29 0.30 0.29 0.30 0.29 0.29 0.30 0.29 0.30 0.30 0.29 0.28 0.27 0.27 0.25 0.28 0.27 0.25 0.27 0.29 0.31 0.29 0.32 0.30 0.35 0.38 0.34 0.33 0.34 0.33 0.35 0.38 0.40 0.43 0.50
0.58 0.57 0.56 0.53 0.52 0.52 0.52 0.53 0.57 0.62 0.63 0.62 0.63 0.62 0.61 0.62 0.64 0.69 0.73 0.72 0.71 0.71 0.71 0.70 0.70 0.64 0.60 0.62 0.59 0.46 0.61 0.60 0.71 0.58 0.52 0.54 0.49 0.45 0.47 0.48 0.43 0.39 0.39 0.38 0.38 0.37 0.35 0.34 0.33 0.31 0.26 0.31 0.26 0.29 0.28 0.30 0.29 0.29 0.28 0.24 0.27 0.29 0.28 0.29 0.28 0.29 0.26 0.26 0.29 0.27 0.27 0.25 0.27 0.27 0.31 0.31 0.35 0.40 0.38 0.33 0.33 0.32 0.33 0.35 0.37 0.38 0.45 0.52
0.58 0.57 0.56 0.55 0.52 0.51 0.52 0.53 0.56 0.59 0.60 0.60 0.60 0.60 0.60 0.62 0.66 0.70 0.73 0.73 0.72 0.69 0.70 0.71 0.67 0.64 0.63 0.61 0.49 0.58 0.61 0.63 0.68 0.63 0.56 0.56 0.52 0.51 0.51 0.51 0.48 0.43 0.41 0.40 0.43 0.45 0.45 0.40 0.37 0.32 0.32 0.30 0.28 0.25 0.30 0.32 0.29 0.29 0.28 0.26 0.25 0.27 0.26 0.26 0.29 0.29 0.28 0.28 0.31 0.29 0.21 0.23 0.28 0.29 0.34 0.37 0.38 0.37 0.37 0.38 0.36 0.32 0.32 0.35 0.36 0.38 0.40 0.57
0.58 0.56 0.56 0.55 0.54 0.52 0.51 0.52 0.56 0.58 0.58 0.57 0.58 0.60 0.61 0.63 0.66 0.71 0.72 0.73 0.72 0.72 0.70 0.71 0.69 0.69 0.63 0.45 0.54 0.58 0.62 0.66 0.63 0.60 0.59 0.57 0.51 0.49 0.51 0.52 0.52 0.50 0.48 0.45 0.47 0.47 0.45 0.43 0.40 0.36 0.36 0.32 0.29 0.34 0.29 0.29 0.31 0.26 0.30 0.29 0.25 0.23 0.25 0.30 0.29 0.29 0.29 0.32 0.32 0.30 0.23 0.26 0.27 0.29 0.32 0.36 0.38 0.37 0.37 0.33 0.37 0.38 0.37 0.37 0.37 0.41 0.44 0.68
0.57 0.56 0.55 0.55 0.54 0.53 0.52 0.52 0.56 0.59 0.60 0.60 0.58 0.58 0.60 0.62 0.67 0.70 0.73 0.73 0.73 0.74 0.72 0.72 0.69 0.68 0.63 0.51 0.65 0.60 0.64 0.64 0.57 0.62 0.66 0.57 0.50 0.48 0.49 0.51 0.52 0.52 0.52 0.51 0.48 0.49 0.47 0.45 0.42 0.37 0.34 0.36 0.34 0.29 0.25 0.25 0.29 0.31 0.28 0.27 0.29 0.24 0.28 0.33 0.34 0.31 0.29 0.32 0.33 0.33 0.25 0.25 0.28 0.31 0.32 0.33 0.29 0.32 0.34 0.37 0.38 0.40 0.39 0.39 0.40 0.43 0.43 0.65
0.54 0.56 0.54 0.54 0.55 0.54 0.52 0.52 0.55 0.58 0.61 0.62 0.61 0.60 0.59 0.62 0.64 0.67 0.71 0.73 0.77 0.75 0.74 0.69 0.64 0.66 0.62 0.52 0.57 0.62 0.60 0.57 0.57 0.62 0.64 0.60 0.54 0.49 0.52 0.50 0.52 0.52 0.52 0.51 0.53 0.50 0.47 0.44 0.38 0.37 0.36 0.36 0.33 0.31 0.28 0.28 0.29 0.34 0.32 0.31 0.29 0.27 0.29 0.29 0.33 0.35 0.35 0.34 0.35 0.33 0.26 0.28 0.30 0.33 0.33 0.35 0.34 0.33 0.33 0.37 0.41 0.41 0.43 0.42 0.41 0.45 0.59 0.60
0.52 0.54 0.54 0.53 0.54 0.55 0.53 0.51 0.54 0.58 0.60 0.62 0.63 0.63 0.63 0.65 0.66 0.68 0.70 0.70 0.70 0.74 0.78 0.72 0.71 0.69 0.48 0.57 0.68 0.57 0.54 0.55 0.59 0.57 0.61 0.62 0.58 0.56 0.53 0.51 0.49 0.50 0.52 0.52 0.51 0.49 0.46 0.39 0.39 0.36 0.36 0.34 0.36 0.34 0.29 0.28 0.27 0.30 0.33 0.30 0.31 0.29 0.28 0.26 0.31 0.35 0.34 0.31 0.30 0.30 0.30 0.30 0.30 0.33 0.35 0.39 0.38 0.30 0.34 0.37 0.40 0.42 0.43 0.43 0.43 0.44 0.59 0.66
0.51 0.52 0.53 0.54 0.54 0.54 0.53 0.51 0.52 0.56 0.59 0.60 0.63 0.66 0.66 0.69 0.72 0.70 0.71 0.72 0.75 0.71 0.72 0.79 0.74 0.65 0.50 0.62 0.51 0.47 0.54 0.52 0.53 0.55 0.56 0.61 0.60 0.58 0.54 0.51 0.52 0.50 0.49 0.46 0.49 0.44 0.45 0.39 0.38 0.33 0.36 0.35 0.36 0.33 0.28 0.24 0.29 0.28 0.28 0.27 0.27 0.28 0.27 0.26 0.27 0.33 0.35 0.34 0.31 0.33 0.30 0.31 0.32 0.35 0.37 0.39 0.39 0.38 0.37 0.40 0.41 0.42 0.42 0.44 0.45 0.49 0.60 0.61
0.50 0.49 0.51 0.53 0.54 0.54 0.53 0.53 0.51 0.53 0.57 0.59 0.64 0.70 0.72 0.72 0.72 0.69 0.60 0.69 0.67 0.63 0.61 0.51 0.56 0.40 0.36 0.47 0.53 0.55 0.53 0.55 0.55 0.53 0.52 0.56 0.59 0.58 0.55 0.56 0.51 0.45 0.41 0.40 0.40 0.44 0.44 0.40 0.40 0.36 0.34 0.38 0.40 0.39 0.35 0.34 0.32 0.30 0.27 0.26 0.26 0.25 0.28 0.28 0.33 0.34 0.35 0.33 0.31 0.33 0.32 0.31 0.32 0.33 0.33 0.34 0.37 0.38 0.38 0.40 0.43 0.44 0.45 0.47 0.47 0.52 0.58 0.63
0.50 0.48 0.49 0.50 0.51 0.54 0.54 0.54 0.53 0.53 0.56 0.54 0.57 0.64 0.70 0.61 0.66 0.52 0.60 0.60 0.46 0.43 0.42 0.45 0.47 0.49 0.49 0.48 0.48 0.55 0.58 0.57 0.49 0.52 0.55 0.58 0.56 0.53 0.49 0.49 0.46 0.45 0.43 0.38 0.42 0.44 0.45 0.38 0.37 0.39 0.41 0.39 0.39 0.39 0.37 0.36 0.35 0.31 0.29 0.29 0.29 0.29 0.32 0.35 0.38 0.35 0.37 0.34 0.34 0.29 0.31 0.32 0.32 0.32 0.33 0.36 0.38 0.38 0.39 0.41 0.44 0.44 0.45 0.46 0.53 0.58 0.66 0.70
0.49 0.47 0.47 0.48 0.49 0.52 0.54 0.55 0.55 0.54 0.54 0.54 0.52 0.47 0.40 0.43 0.41 0.36 0.45 0.44 0.48 0.48 0.45 0.46 0.46 0.44 0.43 0.47 0.51 0.53 0.47 0.50 0.52 0.51 0.54 0.60 0.55 0.50 0.45 0.44 0.42 0.39 0.40 0.44 0.43 0.46 0.42 0.38 0.41 0.46 0.47 0.43 0.39 0.35 0.34 0.31 0.33 0.31 0.31 0.30 0.32 0.32 0.33 0.38 0.36 0.38 0.38 0.32 0.32 0.33 0.32 0.32 0.33 0.35 0.37 0.37 0.38 0.38 0.37 0.37 0.39 0.43 0.48 0.53 0.57 0.58 0.68 0.70
0.50 0.47 0.46 0.46 0.47 0.49 0.53 0.55 0.57 0.56 0.55 0.54 0.44 0.41 0.44 0.47 0.54 0.60 0.56 0.38 0.44 0.45 0.44 0.45 0.46 0.43 0.48 0.50 0.52 0.53 0.50 0.45 0.46 0.50 0.54 0.57 0.52 0.45 0.46 0.42 0.41 0.40 0.45 0.46 0.46 0.40 0.43 0.40 0.43 0.48 0.45 0.45 0.44 0.40 0.37 0.35 0.34 0.35 0.34 0.34 0.33 0.33 0.35 0.37 0.37 0.39 0.38 0.33 0.29 0.30 0.29 0.30 0.33 0.36 0.38 0.41 0.43 0.42 0.41 0.40 0.39 0.42 0.43 0.49 0.59 0.64 0.65 0.70
0.50 0.47 0.45 0.45 0.45 0.47 0.51 0.55 0.57 0.60 0.54 0.44 0.36 0.39 0.43 0.53 0.60 0.65 0.64 0.49 0.42 0.42 0.42 0.42 0.40 0.39 0.42 0.48 0.48 0.49 0.40 0.40 0.37 0.43 0.48 0.50 0.48 0.46 0.45 0.43 0.42 0.42 0.43 0.42 0.37 0.39 0.37 0.38 0.43 0.45 0.44 0.42 0.39 0.36 0.35 0.34 0.35 0.34 0.34 0.33 0.28 0.32 0.30 0.29 0.30 0.33 0.36 0.32 0.28 0.31 0.31 0.32 0.34 0.37 0.39 0.42 0.43 0.44 0.44 0.44 0.40 0.42 0.42 0.50 0.68 0.66 0.72 0.76
0.48 0.47 0.45 0.44 0.45 0.45 0.50 0.54 0.58 0.61 0.57 0.43 0.39 0.38 0.48 0.56 0.60 0.64 0.57 0.44 0.36 0.39 0.40 0.42 0.42 0.39 0.42 0.40 0.45 0.43 0.39 0.40 0.41 0.40 0.49 0.46 0.42 0.46 0.41 0.42 0.40 0.39 0.37 0.42 0.39 0.36 0.36 0.40 0.43 0.39 0.42 0.40 0.34 0.33 0.32 0.33 0.30 0.35 0.34 0.31 0.33 0.32 0.33 0.32 0.30 0.32 0.32 0.34 0.33 0.32 0.29 0.28 0.33 0.35 0.37 0.38 0.42 0.40 0.42 0.43 0.43 0.49 0.50 0.63 0.67 0.68 0.72 0.71
0.47 0.46 0.45 0.44 0.43 0.45 0.48 0.55 0.49 0.46 0.47 0.46 0.40 0.45 0.47 0.51 0.63 0.63 0.52 0.49 0.47 0.40 0.45 0.44 0.42 0.40 0.42 0.48 0.47 0.38 0.40 0.40 0.40 0.43 0.47 0.45 0.44 0.39 0.41 0.44 0.41 0.34 0.37 0.41 0.41 0.38 0.33 0.40 0.42 0.41 0.39 0.39 0.36 0.32 0.33 0.33 0.29 0.32 0.38 0.31 0.34 0.35 0.32 0.31 0.30 0.30 0.28 0.27 0.32 0.31 0.26 0.27 0.33 0.34 0.34 0.38 0.42 0.43 0.51 0.47 0.43 0.45 0.49 0.59 0.65 0.66 0.73 0.72
0.46 0.45 0.44 0.44 0.44 0.45 0.49 0.46 0.41 0.51 0.42 0.39 0.42 0.47 0.46 0.52 0.60 0.68 0.58 0.46 0.30 0.33 0.43 0.33 0.42 0.35 0.43 0.38 0.41 0.39 0.44 0.36 0.43 0.43 0.45 0.46 0.46 0.40 0.38 0.38 0.42 0.34 0.37 0.39 0.37 0.37 0.37 0.40 0.40 0.38 0.35 0.37 0.37 0.35 0.35 0.35 0.33 0.30 0.31 0.35 0.34 0.32 0.30 0.29 0.29 0.29 0.24 0.21 0.29 0.34 0.26 0.24 0.30 0.32 0.37 0.39 0.40 0.41 0.43 0.44 0.46 0.49 0.53 0.57 0.62 0.67 0.76 0.76
0.45 0.44 0.44 0.44 0.44 0.46 0.37 0.32 0.49 0.51 0.35 0.38 0.47 0.48 0.49 0.57 0.64 0.68 0.55 0.42 0.32 0.31 0.29 0.35 0.32 0.37 0.37 0.35 0.37 0.37 0.28 0.33 0.44 0.46 0.44 0.45 0.39 0.46 0.32 0.34 0.40 0.43 0.40 0.42 0.35 0.37 0.39 0.39 0.37 0.39 0.37 0.37 0.36 0.31 0.35 0.36 0.32 0.29 0.33 0.32 0.31 0.29 0.29 0.29 0.27 0.27 0.25 0.30 0.32 0.34 0.33 0.28 0.28 0.33 0.38 0.41 0.41 0.41 0.41 0.43 0.46 0.49 0.58 0.64 0.64 0.65 0.69 0.76
0.44 0.43 0.44 0.45 0.45 0.47 0.41 0.48 0.48 0.38 0.37 0.45 0.50 0.47 0.53 0.62 0.60 0.66 0.52 0.31 0.26 0.34 0.30 0.30 0.31 0.38 0.34 0.33 0.34 0.30 0.29 0.32 0.31 0.39 0.44 0.44 0.41 0.38 0.35 0.33 0.34 0.34 0.38 0.36 0.26 0.33 0.35 0.33 0.35 0.34 0.34 0.33 0.31 0.34 0.36 0.35 0.29 0.27 0.29 0.31 0.29 0.29 0.30 0.31 0.30 0.29 0.30 0.28 0.25 0.31 0.34 0.28 0.29 0.38 0.43 0.42 0.39 0.41 0.45 0.47 0.52 0.55 0.64 0.67 0.68 0.70 0.73 0.73
0.44 0.43 0.44 0.45 0.45 0.50 0.56 0.51 0.49 0.39 0.45 0.50 0.48 0.47 0.55 0.62 0.63 0.53 0.45 0.28 0.36 0.31 0.46 0.33 0.42 0.39 0.31 0.32 0.33 0.31 0.30 0.31 0.26 0.31 0.37 0.40 0.44 0.36 0.31 0.34 0.34 0.32 0.31 0.31 0.25 0.29 0.33 0.35 0.36 0.35 0.33 0.30 0.36 0.37 0.34 0.31 0.27 0.31 0.32 0.31 0.32 0.32 0.33 0.32 0.29 0.28 0.26 0.23 0.21 0.29 0.34 0.27 0.31 0.35 0.38 0.41 0.39 0.38 0.40 0.46 0.56 0.60 0.68 0.67 0.69 0.71 0.75 0.76
0.44 0.42 0.44 0.46 0.45 0.53 0.51 0.59 0.56 0.47 0.51 0.51 0.49 0.50 0.58 0.66 0.56 0.36 0.28 0.22 0.26 0.32 0.35 0.31 0.31 0.27 0.30 0.28 0.29 0.33 0.28 0.31 0.29 0.29 0.31 0.32 0.41 0.40 0.40 0.40 0.35 0.32 0.31 0.35 0.33 0.35 0.38 0.42 0.42 0.39 0.36 0.38 0.37 0.37 0.33 0.33 0.33 0.34 0.33 0.30 0.30 0.29 0.29 0.30 0.30 0.27 0.27 0.24 0.26 0.32 0.33 0.33 0.27 0.32 0.37 0.37 0.42 0.40 0.41 0.46 0.56 0.67 0.71 0.68 0.68 0.69 0.72 0.73
0.44 0.43 0.44 0.48 0.41 0.42 0.42 0.41 0.44 0.48 0.53 0.52 0.52 0.61 0.60 0.58 0.40 0.34 0.17 0.25 0.27 0.35 0.38 0.35 0.28 0.31 0.27 0.25 0.26 0.28 0.28 0.30 0.30 0.28 0.29 0.36 0.33 0.41 0.40 0.34 0.39 0.33 0.29 0.31 0.32 0.34 0.38 0.35 0.35 0.42 0.43 0.42 0.39 0.33 0.33 0.34 0.33 0.30 0.27 0.24 0.24 0.25 0.28 0.26 0.28 0.31 0.24 0.21 0.28 0.31 0.31 0.33 0.23 0.31 0.36 0.43 0.52 0.49 0.48 0.53 0.57 0.59 0.61 0.61 0.65 0.68 0.69 0.74
0.45 0.43 0.45 0.48 0.49 0.49 0.37 0.34 0.45 0.53 0.51 0.50 0.53 0.56 0.56 0.42 0.49 0.23 0.23 0.38 0.27 0.35 0.28 0.27 0.29 0.28 0.27 0.28 0.24 0.26 0.24 0.27 0.31 0.28 0.25 0.26 0.25 0.28 0.34 0.27 0.27 0.18 0.19 0.26 0.25 0.32 0.30 0.32 0.34 0.36 0.40 0.36 0.33 0.29 0.28 0.28 0.27 0.24 0.23 0.25 0.20 0.21 0.23 0.21 0.24 0.18 0.19 0.19 0.28 0.31 0.31 0.26 0.26 0.30 0.34 0.38 0.48 0.54 0.54 0.58 0.57 0.56 0.57 0.58 0.60 0.63 0.67 0.75
0.47 0.44 0.48 0.54 0.57 0.49 0.48 0.51 0.53 0.52 0.50 0.51 0.54 0.54 0.42 0.28 0.19 0.21 0.30 0.26 0.36 0.39 0.27 0.28 0.28 0.27 0.26 0.27 0.27 0.28 0.29 0.24 0.31 0.31 0.28 0.30 0.28 0.37 0.40 0.34 0.31 0.25 0.17 0.25 0.20 0.23 0.26 0.30 0.31 0.32 0.35 0.38 0.35 0.24 0.22 0.22 0.22 0.22 0.22 0.22 0.20 0.19 0.17 0.16 0.20 0.22 0.23 0.27 0.31 0.28 0.29 0.23 0.27 0.28 0.33 0.45 0.56 0.60 0.60 0.59 0.60 0.58 0.57 0.59 0.64 0.64 0.64 0.67
0.50 0.47 0.48 0.56 0.60 0.59 0.55 0.56 0.57 0.50 0.46 0.51 0.51 0.47 0.41 0.23 0.23 0.30 0.30 0.27 0.25 0.29 0.28 0.29 0.28 0.29 0.30 0.25 0.27 0.27 0.24 0.30 0.32 0.29 0.29 0.30 0.33 0.38 0.37 0.36 0.32 0.25 0.27 0.24 0.24 0.28 0.16 0.25 0.32 0.34 0.32 0.37 0.33 0.28 0.27 0.24 0.23 0.20 0.25 0.25 0.22 0.22 0.20 0.16 0.17 0.16 0.17 0.18 0.20 0.24 0.19 0.18 0.19 0.28 0.36 0.48 0.55 0.60 0.62 0.62 0.62 0.63 0.63 0.63 0.65 0.65 0.65 0.65
0.55 0.53 0.56 0.61 0.64 0.66 0.61 0.56 0.48 0.49 0.50 0.49 0.45 0.37 0.29 0.27 0.33 0.25 0.30 0.29 0.28 0.28 0.28 0.31 0.29 0.29 0.29 0.29 0.30 0.33 0.27 0.24 0.32 0.28 0.29 0.29 0.34 0.32 0.31 0.30 0.31 0.29 0.31 0.22 0.32 0.26 0.23 0.21 0.29 0.37 0.35 0.33 0.29 0.32 0.30 0.27 0.20 0.25 0.25 0.26 0.23 0.23 0.26 0.19 0.20 0.19 0.17 0.17 0.16 0.20 0.21 0.24 0.27 0.36 0.50 0.53 0.54 0.62 0.65 0.62 0.64 0.63 0.62 0.63 0.63 0.63 0.63 0.65
0.55 0.55 0.62 0.58 0.51 0.42 0.44 0.44 0.48 0.52 0.52 0.47 0.37 0.29 0.24 0.27 0.25 0.27 0.28 0.28 0.28 0.25 0.24 0.34 0.36 0.27 0.28 0.31 0.32 0.31 0.39 0.29 0.28 0.30 0.31 0.34 0.33 0.31 0.34 0.33 0.29 0.32 0.29 0.23 0.29 0.22 0.26 0.24 0.35 0.36 0.35 0.31 0.33 0.33 0.30 0.29 0.16 0.21 0.20 0.17 0.22 0.28 0.24 0.20 0.19 0.20 0.20 0.18 0.16 0.24 0.24 0.28 0.32 0.36 0.49 0.51 0.56 0.58 0.60 0.58 0.62 0.64 0.62 0.62 0.61 0.61 0.64 0.66
0.51 0.57 0.56 0.54 0.53 0.45 0.43 0.45 0.50 0.50 0.51 0.44 0.32 0.27 0.30 0.30 0.27 0.27 0.29 0.25 0.26 0.26 0.28 0.27 0.34 0.28 0.24 0.31 0.30 0.33 0.36 0.33 0.33 0.33 0.31 0.37 0.34 0.38 0.36 0.36 0.38 0.36 0.32 0.31 0.25 0.33 0.26 0.26 0.31 0.29 0.26 0.31 0.35 0.34 0.28 0.29 0.31 0.29 0.21 0.26 0.29 0.28 0.26 0.21 0.17 0.19 0.18 0.15 0.16 0.22 0.21 0.23 0.24 0.24 0.47 0.47 0.47 0.49 0.53 0.55 0.57 0.55 0.56 0.56 0.58 0.59 0.61 0.63
0.51 0.55 0.60 0.61 0.52 0.52 0.45 0.48 0.53 0.52 0.49 0.41 0.30 0.22 0.27 0.33 0.34 0.30 0.30 0.28 0.29 0.32 0.25 0.31 0.34 0.32 0.29 0.29 0.30 0.35 0.36 0.27 0.35 0.30 0.29 0.34 0.32 0.45 0.39 0.36 0.39 0.37 0.36 0.36 0.27 0.27 0.31 0.22 0.27 0.31 0.29 0.34 0.36 0.30 0.27 0.33 0.36 0.30 0.28 0.31 0.22 0.21 0.18 0.23 0.20 0.14 0.15 0.15 0.15 0.19 0.22 0.23 0.24 0.24 0.40 0.40 0.41 0.46 0.50 0.51 0.53 0.54 0.54 0.54 0.55 0.56 0.58 0.61
0.58 0.57 0.56 0.60 0.64 0.58 0.50 0.50 0.52 0.46 0.43 0.37 0.39 0.31 0.32 0.29 0.32 0.30 0.30 0.29 0.33 0.30 0.30 0.36 0.29 0.36 0.33 0.29 0.36 0.37 0.35 0.28 0.31 0.30 0.30 0.35 0.28 0.43 0.39 0.40 0.36 0.39 0.38 0.34 0.29 0.31 0.32 0.24 0.27 0.35 0.29 0.33 0.29 0.26 0.22 0.29 0.33 0.35 0.34 0.29 0.29 0.24 0.21 0.20 0.22 0.23 0.21 0.16 0.17 0.17 0.19 0.19 0.26 0.26 0.29 0.38 0.40 0.42 0.41 0.45 0.47 0.48 0.50 0.50 0.50 0.52 0.53 0.55
0.51 0.44 0.54 0.68 0.68 0.61 0.56 0.55 0.47 0.45 0.39 0.29 0.34 0.33 0.33 0.34 0.34 0.35 0.32 0.29 0.30 0.28 0.32 0.29 0.34 0.30 0.35 0.37 0.35 0.32 0.38 0.36 0.32 0.32 0.29 0.34 0.34 0.42 0.37 0.41 0.36 0.35 0.35 0.33 0.29 0.36 0.32 0.39 0.23 0.28 0.33 0.27 0.21 0.28 0.27 0.29 0.26 0.26 0.26 0.24 0.25 0.25 0.28 0.26 0.26 0.24 0.23 0.21 0.20 0.18 0.15 0.19 0.27 0.29 0.30 0.37 0.36 0.41 0.41 0.41 0.42 0.43 0.45 0.45 0.46 0.46 0.47 0.48
0.55 0.48 0.54 0.69 0.65 0.63 0.58 0.54 0.45 0.34 0.36 0.39 0.33 0.29 0.31 0.30 0.30 0.33 0.35 0.33 0.30 0.35 0.30 0.29 0.29 0.28 0.32 0.30 0.32 0.42 0.38 0.37 0.34 0.30 0.33 0.35 0.36 0.32 0.41 0.38 0.39 0.35 0.34 0.32 0.35 0.40 0.33 0.33 0.25 0.25 0.23 0.23 0.25 0.31 0.34 0.33 0.30 0.27 0.25 0.23 0.27 0.27 0.25 0.23 0.22 0.30 0.28 0.24 0.21 0.20 0.16 0.17 0.26 0.29 0.27 0.33 0.34 0.37 0.37 0.39 0.39 0.40 0.42 0.42 0.43 0.44 0.44 0.44
0.47 0.35 0.46 0.66 0.66 0.60 0.50 0.38 0.44 0.41 0.34 0.32 0.29 0.29 0.29 0.30 0.28 0.33 0.31 0.34 0.32 0.31 0.38 0.33 0.34 0.35 0.34 0.33 0.35 0.36 0.35 0.32 0.33 0.32 0.34 0.33 0.42 0.38 0.39 0.42 0.40 0.36 0.31 0.28 0.32 0.39 0.36 0.33 0.27 0.21 0.23 0.25 0.30 0.32 0.34 0.33 0.32 0.31 0.30 0.28 0.31 0.30 0.29 0.24 0.19 0.22 0.26 0.26 0.27 0.23 0.19 0.15 0.23 0.27 0.25 0.33 0.33 0.35 0.35 0.36 0.36 0.36 0.38 0.39 0.39 0.39 0.41 0.41
0.44 0.38 0.52 0.56 0.68 0.57 0.46 0.37 0.42 0.39 0.38 0.35 0.37 0.34 0.33 0.33 0.31 0.33 0.30 0.32 0.29 0.35 0.32 0.32 0.33 0.33 0.35 0.37 0.38 0.35 0.34 0.32 0.33 0.30 0.33 0.34 0.34 0.36 0.40 0.41 0.41 0.39 0.35 0.31 0.39 0.38 0.38 0.28 0.24 0.25 0.28 0.29 0.29 0.31 0.32 0.32 0.32 0.33 0.36 0.35 0.32 0.29 0.30 0.27 0.26 0.26 0.21 0.21 0.21 0.20 0.17 0.16 0.24 0.27 0.26 0.31 0.37 0.35 0.36 0.37 0.36 0.37 0.38 0.38 0.37 0.37 0.36 0.36
0.47 0.43 0.43 0.60 0.66 0.60 0.40 0.33 0.32 0.35 0.41 0.44 0.41 0.39 0.39 0.34 0.32 0.31 0.31 0.34 0.32 0.31 0.32 0.33 0.36 0.38 0.34 0.39 0.37 0.32 0.40 0.29 0.34 0.32 0.34 0.39 0.37 0.44 0.44 0.44 0.41 0.37 0.33 0.35 0.33 0.38 0.26 0.29 0.26 0.21 0.20 0.22 0.24 0.26 0.27 0.34 0.35 0.33 0.32 0.33 0.33 0.32 0.30 0.28 0.27 0.26 0.21 0.19 0.20 0.19 0.14 0.16 0.22 0.28 0.28 0.28 0.29 0.30 0.32 0.37 0.37 0.35 0.35 0.35 0.35 0.35 0.34 0.32
0.50 0.52 0.52 0.62 0.69 0.56 0.40 0.45 0.39 0.39 0.40 0.41 0.41 0.37 0.40 0.38 0.40 0.36 0.32 0.30 0.35 0.33 0.32 0.32 0.36 0.38 0.38 0.40 0.35 0.36 0.37 0.35 0.32 0.38 0.35 0.35 0.35 0.44 0.44 0.43 0.42 0.38 0.37 0.43 0.39 0.37 0.28 0.26 0.25 0.20 0.17 0.15 0.16 0.17 0.21 0.28 0.31 0.31 0.32 0.31 0.31 0.29 0.27 0.25 0.20 0.21 0.18 0.18 0.19 0.17 0.17 0.20 0.23 0.26 0.27 0.27 0.28 0.29 0.30 0.31 0.34 0.32 0.33 0.32 0.32 0.31 0.29 0.28
0.48 0.34 0.43 0.45 0.59 0.56 0.52 0.53 0.45 0.40 0.37 0.42 0.39 0.37 0.39 0.36 0.40 0.40 0.39 0.35 0.35 0.35 0.34 0.33 0.36 0.37 0.33 0.32 0.32 0.34 0.35 0.39 0.35 0.35 0.35 0.35 0.40 0.42 0.44 0.43 0.41 0.38 0.43 0.41 0.39 0.35 0.29 0.31 0.30 0.27 0.24 0.22 0.23 0.25 0.31 0.32 0.28 0.24 0.26 0.26 0.26 0.27 0.27 0.26 0.24 0.21 0.18 0.19 0.18 0.18 0.19 0.19 0.21 0.25 0.27 0.28 0.28 0.27 0.27 0.27 0.28 0.26 0.26 0.27 0.25 0.24 0.23 0.23
0.55 0.41 0.45 0.41 0.50 0.44 0.43 0.51 0.49 0.47 0.41 0.48 0.35 0.40 0.39 0.40 0.43 0.43 0.41 0.34 0.40 0.37 0.37 0.36 0.36 0.32 0.33 0.34 0.33 0.34 0.38 0.39 0.43 0.41 0.39 0.38 0.38 0.41 0.44 0.42 0.41 0.42 0.41 0.39 0.40 0.37 0.32 0.28 0.30 0.31 0.31 0.31 0.33 0.31 0.32 0.30 0.25 0.25 0.25 0.25 0.27 0.26 0.26 0.24 0.21 0.18 0.23 0.22 0.16 0.19 0.23 0.24 0.24 0.26 0.26 0.26 0.26 0.26 0.25 0.24 0.24 0.26 0.26 0.25 0.22 0.21 0.21 0.21
0.44 0.49 0.54 0.59 0.41 0.37 0.42 0.44 0.48 0.46 0.50 0.48 0.41 0.44 0.41 0.40 0.42 0.40 0.42 0.41 0.42 0.43 0.34 0.36 0.37 0.37 0.36 0.35 0.38 0.35 0.37 0.37 0.38 0.35 0.41 0.42 0.40 0.43 0.42 0.44 0.40 0.47 0.44 0.40 0.42 0.38 0.35 0.30 0.34 0.33 0.30 0.30 0.29 0.28 0.30 0.30 0.30 0.29 0.26 0.25 0.24 0.26 0.27 0.25 0.23 0.25 0.26 0.22 0.19 0.23 0.24 0.23 0.24 0.27 0.26 0.27 0.27 0.26 0.23 0.22 0.23 0.23 0.24 0.25 0.23 0.21 0.20 0.19
0.58 0.55 0.53 0.61 0.46 0.47 0.47 0.48 0.51 0.50 0.48 0.48 0.44 0.44 0.40 0.42 0.42 0.46 0.45 0.46 0.44 0.41 0.40 0.31 0.34 0.38 0.39 0.39 0.36 0.34 0.37 0.32 0.31 0.38 0.39 0.40 0.41 0.44 0.42 0.44 0.44 0.45 0.41 0.40 0.40 0.44 0.38 0.32 0.32 0.31 0.29 0.30 0.31 0.30 0.29 0.27 0.25 0.25 0.26 0.26 0.27 0.27 0.27 0.26 0.25 0.26 0.26 0.25 0.26 0.25 0.25 0.25 0.26 0.26 0.26 0.24 0.24 0.24 0.23 0.24 0.23 0.21 0.21 0.21 0.21 0.21 0.22 0.21
0.53 0.52 0.48 0.60 0.57 0.51 0.51 0.49 0.48 0.48 0.45 0.51 0.43 0.42 0.42 0.42 0.42 0.47 0.52 0.47 0.42 0.44 0.49 0.39 0.38 0.40 0.39 0.39 0.38 0.34 0.37 0.38 0.37 0.36 0.45 0.46 0.45 0.46 0.42 0.41 0.39 0.44 0.43 0.39 0.41 0.44 0.37 0.31 0.34 0.32 0.29 0.26 0.28 0.28 0.28 0.27 0.27 0.25 0.26 0.27 0.26 0.26 0.26 0.27 0.27 0.26 0.27 0.26 0.27 0.26 0.24 0.21 0.23 0.24 0.23 0.25 0.25 0.24 0.21 0.19 0.20 0.21 0.21 0.21 0.22 0.22 0.21 0.22
0.76 0.72 0.66 0.51 0.46 0.49 0.51 0.50 0.48 0.47 0.45 0.49 0.45 0.46 0.46 0.45 0.45 0.50 0.49 0.53 0.48 0.44 0.45 0.41 0.43 0.42 0.42 0.40 0.39 0.38 0.42 0.42 0.42 0.43 0.48 0.49 0.40 0.46 0.40 0.41 0.43 0.39 0.41 0.40 0.40 0.40 0.39 0.33 0.36 0.33 0.26 0.24 0.29 0.28 0.27 0.27 0.26 0.25 0.24 0.24 0.23 0.23 0.23 0.26 0.27 0.30 0.27 0.24 0.24 0.22 0.19 0.17 0.19 0.22 0.23 0.23 0.21 0.19 0.19 0.20 0.21 0.21 0.21 0.23 0.23 0.24 0.25 0.25
0.88 0.84 0.76 0.64 0.47 0.52 0.47 0.49 0.51 0.49 0.42 0.49 0.50 0.50 0.48 0.49 0.51 0.54 0.47 0.52 0.53 0.53 0.49 0.46 0.48 0.46 0.44 0.44 0.42 0.45 0.49 0.50 0.49 0.50 0.51 0.49 0.47 0.44 0.44 0.43 0.43 0.40 0.39 0.38 0.40 0.37 0.37 0.34 0.30 0.29 0.25 0.22 0.26 0.27 0.27 0.27 0.26 0.22 0.21 0.25 0.28 0.31 0.30 0.30 0.29 0.28 0.26 0.25 0.21 0.17 0.16 0.20 0.21 0.21 0.19 0.19 0.20 0.21 0.21 0.21 0.21 0.22 0.23 0.22 0.24 0.25 0.25 0.26
Wind_Speed
15 15 15 14 14 13 12 11 11 10 10 9 8 7 6 6 6 6 5 5 5 5 5 6 6 6 6 6 7 7 6 6 5 4 3 4 3 4 3 2 1 1 1 1 1 1 1 0 1 2 4 4 5 5 6 5 6 6 5 5 5 7 10 9 10 10 9 10 11 11 12 11 11 11 10 9 10 10 10 10 9 8 6 3 1 3 2 1
15 15 15 14 13 13 12 11 10 10 9 8 7 7 6 6 6 5 5 5 5 5 5 5 5 5 6 6 6 6 6 6 5 4 4 4 4 3 3 2 1 2 2 2 2 1 1 1 1 2 3 4 5 4 5 6 5 6 6 6 4 7 12 10 10 10 10 12 12 12 12 12 11 10 10 10 11 10 9 8 8 8 5 2 2 3 3 3
16 15 15 14 13 12 11 11 10 9 8 7 7 6 6 6 5 5 5 5 4 4 4 5 5 5 5 6 6 6 6 6 4 4 4 4 3 3 2 1 1 2 3 2 2 1 0 2 2 2 3 4 4 4 5 6 5 5 6 6 6 10 12 9 10 11 11 12 12 12 11 11 11 11 10 10 10 9 8 8 8 8 3 0 2 3 4 4
16 16 16 15 13 12 11 10 9 9 8 7 7 6 6 6 6 5 5 5 4 4 4 4 4 4 5 5 5 6 6 5 4 5 5 5 3 2 2 1 2 2 3 2 0 0 1 3 2 3 4 4 4 4 5 6 6 6 7 8 9 11 11 10 11 11 12 13 12 12 11 12 11 10 9 10 10 9 9 9 9 7 2 1 3 4 5 5
17 17 16 15 13 11 10 10 9 8 8 7 7 7 6 6 6 6 5 5 4 4 4 4 4 4 4 5 4 4 5 5 5 5 5 5 4 3 2 2 2 3 2 1 2 1 2 3 3 3 4 5 6 5 5 6 6 7 8 10 11 11 11 11 12 12 13 13 13 12 12 12 11 10 9 9 9 9 9 10 10 8 5 3 4 5 5 5
18 18 16 14 12 11 10 10 9 8 8 7 7 7 6 6 6 5 5 4 4 3 3 3 3 3 4 4 3 3 4 4 4 4 4 5 4 3 2 2 2 2 1 2 3 2 2 3 3 3 3 4 6 7 7 7 7 8 9 11 12 12 12 11 12 13 14 14 13 12 12 11 11 10 9 9 9 9 9 9 8 8 6 4 4 5 5 5
19 18 16 14 12 11 11 10 9 9 8 8 7 7 7 6 6 5 4 4 3 3 3 3 3 3 3 3 2 2 3 4 4 3 3 4 4 3 2 2 2 1 1 4 4 2 3 3 4 4 4 6 7 8 8 8 9 10 11 12 12 12 12 12 13 14 14 14 14 13 12 11 11 11 10 10 10 9 9 8 8 8 7 6 4 4 5 6
19 18 16 14 13 12 11 10 10 9 9 8 7 7 6 5 5 4 3 3 2 2 2 2 2 2 2 2 3 3 3 3 4 3 2 2 3 2 1 1 1 1 2 4 4 2 3 4 4 4 5 7 8 9 10 11 10 10 11 12 13 13 14 14 15 15 14 13 13 12 12 11 11 12 11 11 10 9 8 8 8 8 7 7 5 5 6 8
19 18 16 15 14 13 12 11 11 11 10 9 7 6 5 4 3 3 2 2 1 1 1 2 2 1 1 2 3 4 3 4 4 3 1 1 2 1 1 0 1 1 2 4 3 3 3 4 4 5 7 9 10 11 12 11 11 11 13 14 14 15 15 16 15 14 14 13 12 12 12 11 12 12 11 11 9 7 8 9 9 8 8 8 7 6 8 10
19 18 17 15 15 14 12 12 12 11 10 8 6 5 4 4 3 2 2 1 1 1 1 1 1 1 1 2 3 4 3 4 4 3 1 1 1 0 0 1 1 2 3 3 3 4 4 4 5 7 9 10 10 10 10 11 12 13 15 15 15 15 15 14 14 13 13 11 12 12 11 11 11 11 9 8 6 5 9 11 10 10 9 9 9 10 11 11
20 18 17 16 15 15 13 13 12 11 10 8 6 5 4 4 4 3 3 2 2 1 1 1 0 0 1 2 4 4 4 4 4 2 1 1 1 0 1 2 2 3 4 4 4 5 6 7 7 8 8 8 9 10 10 11 13 13 15 15 15 15 14 13 13 13 11 9 11 11 11 12 11 10 9 7 6 8 12 11 10 11 10 10 11 11 10 9
20 18 17 16 15 15 14 14 13 11 10 8 6 5 5 5 4 4 4 3 2 2 1 1 0 1 2 3 4 5 4 4 4 3 2 1 2 1 2 3 3 4 4 5 5 6 7 8 9 8 8 9 10 10 11 13 14 14 14 14 15 16 15 14 12 10 9 8 10 10 11 13 11 9 9 8 8 10 12 11 11 11 11 12 11 10 10 10
20 19 17 16 15 15 15 14 13 11 10 8 7 5 5 4 4 4 4 3 3 2 2 1 1 2 3 4 4 5 4 4 4 3 2 2 2 2 3 4 4 5 5 7 7 7 8 8 9 10 10 11 11 11 13 14 14 14 13 12 14 16 14 13 8 5 7 8 9 9 10 11 10 8 7 8 9 9 10 12 12 12 12 12 11 11 11 9
21 19 17 16 15 15 15 15 13 11 10 9 7 6 5 4 3 3 4 3 3 2 2 1 1 2 4 4 5 4 5 4 3 3 2 2 3 3 4 5 6 6 6 7 8 8 9 9 9 10 10 11 11 12 13 13 12 13 13 12 13 13 12 12 5 2 6 8 7 9 10 10 11 10 8 9 10 10 12 13 12 12 13 12 12 13 10 7
21 19 18 16 15 15 14 14 13 11 11 9 8 6 5 4 3 3 3 3 3 2 2 1 2 3 4 4 5 5 4 4 3 3 2 3 4 4 4 5 6 6 7 8 8 9 9 9 10 10 10 11 11 12 12 12 13 12 12 11 12 11 10 10 8 6 8 8 9 11 11 10 11 12 11 10 11 13 15 14 13 13 13 12 12 11 7 6
21 20 18 17 16 15 14 14 13 11 10 10 8 7 5 4 3 4 4 4 3 2 2 3 2 3 5 4 4 4 4 4 4 3 3 3 4 5 5 6 6 7 7 8 8 9 9 9 10 10 10 10 10 10 10 12 12 9 9 11 12 11 10 10 11 11 9 9 11 10 10 11 12 13 13 14 14 14 14 14 14 13 13 12 11 9 7 8
21 20 18 17 16 15 14 14 13 11 10 9 8 7 5 4 4 4 4 3 3 3 3 4 4 4 5 5 4 3 4 4 4 4 4 4 5 6 6 6 7 7 8 9 8 9 9 9 9 9 9 9 9 9 9 11 11 10 10 12 12 13 13 12 12 12 10 11 14 11 11 14 14 14 14 15 15 13 14 14 13 12 13 13 11 9 7 8
20 20 19 18 16 15 14 14 13 11 10 9 8 7 5 4 4 4 4 3 3 3 4 4 5 5 4 4 3 4 5 4 4 5 4 5 6 7 7 7 8 8 9 10 9 9 9 8 9 9 10 10 9 9 10 12 12 12 13 13 14 14 14 14 13 13 14 15 15 14 15 15 15 15 15 15 15 14 15 15 13 14 14 12 10 8 7 10
20 19 19 18 16 15 14 14 13 11 11 9 8 7 5 4 4 4 3 3 3 5 5 4 5 5 4 4 5 5 5 4 5 5 5 5 6 7 8 8 8 9 10 9 9 9 8 9 10 10 10 10 9 9 11 14 14 15 15 15 15 14 14 14 13 14 15 15 14 15 15 16 16 17 16 16 16 16 16 15 14 14 12 11 11 9 8 9
19 19 19 18 16 15 13 13 12 12 11 9 8 6 5 6 4 3 3 3 4 6 6 5 5 5 4 5 6 5 5 5 5 5 5 6 7 8 8 8 9 9 9 9 9 7 7 9 10 9 10 11 10 11 14 15 15 16 16 15 15 14 13 13 14 14 14 14 15 15 15 17 17 17 17 17 17 16 16 15 14 13 12 11 10 8 8 9
18 18 18 17 16 15 13 12 12 12 12 10 9 7 6 7 5 4 6 4 4 6 5 5 5 5 5 6 6 5 5 5 5 5 6 7 8 8 7 7 9 9 9 11 10 7 8 10 11 10 10 11 10 12 15 15 15 15 15 14 13 13 13 14 14 14 14 14 16 18 19 19 17 16 17 16 16 15 15 15 14 13 11 9 8 7 9 11
18 18 18 17 16 14 12 12 12 12 11 9 9 8 7 7 5 5 5 4 5 5 5 5 5 6 6 5 5 6 6 7 5 4 7 8 8 8 7 8 10 10 12 12 10 9 10 11 12 11 10 12 12 13 15 14 15 14 13 13 13 12 13 14 14 14 15 16 17 19 20 18 17 16 16 15 15 14 12 12 12 11 9 7 8 8 9 12
18 18 18 16 16 14 12 11 11 11 9 9 10 9 7 7 6 5 4 4 5 5 5 5 6 7 6 5 6 8 8 7 5 5 7 8 8 8 9 10 11 12 12 11 9 12 12 11 12 11 10 13 14 14 15 14 14 13 13 14 13 13 14 14 14 16 17 17 19 20 19 17 16 15 13 13 14 12 11 11 10 10 8 6 7 9 11 13
19 18 17 17 16 14 12 11 10 9 7 9 10 10 8 7 6 5 4 5 4 4 5 5 7 8 7 7 8 9 9 7 6 8 9 9 9 10 10 11 12 12 11 11 11 12 12 11 12 12 11 13 14 14 16 14 13 14 14 13 12 14 16 17 18 20 19 18 18 19 17 15 14 13 12 13 13 12 11 11 9 8 6 4 8 11 12 13
19 18 17 17 16 14 12 9 9 9 7 8 10 10 9 8 6 4 4 4 3 5 6 5 7 8 8 8 8 10 9 6 7 9 9 10 10 11 11 11 11 11 12 13 13 11 13 13 12 13 13 13 14 14 15 15 14 14 14 12 14 18 19 20 21 21 19 17 16 16 15 13 13 14 14 13 12 11 10 10 9 7 5 5 8 11 12 12
19 18 17 16 15 15 11 7 8 9 8 8 10 11 9 8 6 3 4 4 2 5 6 6 8 8 8 9 8 10 9 6 7 9 9 10 10 11 11 10 9 11 12 12 12 11 12 13 12 13 13 12 13 14 15 16 15 14 14 16 18 20 21 21 22 20 18 17 16 15 15 14 15 15 15 13 11 11 11 11 10 7 6 7 8 11 12 13
18 18 17 16 15 14 9 7 8 9 8 9 11 11 9 8 5 2 4 4 3 6 7 7 9 8 9 10 9 10 9 8 8 9 9 10 10 10 10 11 10 11 12 11 11 11 12 14 14 14 14 12 13 15 15 17 16 15 17 20 21 21 21 21 20 18 17 17 16 15 15 15 15 15 14 12 11 10 10 10 8 6 7 8 10 12 14 15
18 18 17 15 15 12 9 8 9 8 8 10 11 10 9 7 4 3 5 4 4 7 7 7 9 8 9 10 9 9 10 10 9 8 10 11 11 11 11 11 12 13 14 12 13 14 14 15 15 15 15 13 14 14 16 18 17 17 19 19 20 20 20 19 18 17 16 16 15 14 14 14 14 13 12 10 10 9 8 7 7 8 9 10 12 15 16 16
19 18 16 15 15 12 9 8 8 9 10 10 11 10 7 5 4 4 5 5 5 6 7 7 8 8 10 10 7 8 10 9 8 10 11 11 10 10 11 12 14 14 14 14 14 14 15 15 14 14 14 12 12 15 17 17 16 17 18 18 19 19 19 18 17 17 17 15 15 15 14 13 13 12 11 10 10 11 10 9 8 9 10 12 14 17 17 17
19 18 16 15 13 11 10 8 8 10 10 10 11 9 6 5 5 5 6 6 6 6 7 8 9 9 12 10 6 8 11 8 10 13 11 10 8 9 12 12 12 13 13 13 14 14 15 14 12 12 10 10 13 16 16 16 17 18 17 17 18 18 16 16 15 15 14 13 13 14 13 13 13 11 11 10 10 12 12 10 9 10 12 13 15 17 18 18
19 18 16 14 11 11 10 9 9 11 11 11 11 8 6 5 6 7 6 6 7 7 7 8 9 10 12 11 7 9 11 8 11 13 10 10 8 8 13 12 11 12 13 12 12 14 14 10 8 8 8 10 13 14 15 15 16 16 15 16 16 15 14 14 13 12 11 11 12 12 13 14 12 10 11 11 12 13 12 11 11 13 15 16 16 17 18 18
19 18 17 13 11 11 10 10 12 12 11 12 10 7 7 7 7 7 7 7 7 8 8 9 11 12 11 11 9 10 12 9 11 13 11 11 9 9 12 12 12 13 12 12 13 13 12 9 9 8 7 10 12 13 15 14 14 14 14 15 15 14 13 13 13 12 12 12 11 13 16 16 13 12 13 12 12 13 12 13 14 15 17 18 17 17 18 18
20 19 16 13 11 11 11 12 13 12 12 11 9 7 8 8 7 7 7 7 7 8 10 11 12 12 11 10 9 11 12 10 11 13 11 11 10 9 10 11 12 13 12 13 13 11 10 10 10 8 8 12 13 14 14 14 15 15 14 14 15 15 14 13 13 13 13 14 15 18 20 17 14 15 14 12 12 12 12 13 15 16 17 17 17 18 19 20
21 19 15 12 12 12 13 13 13 13 12 11 9 8 9 9 7 7 8 7 8 10 11 12 12 12 11 10 10 12 12 10 11 13 12 10 10 9 9 11 13 13 13 13 11 10 10 9 9 9 12 15 16 15 15 16 17 15 14 15 15 14 14 14 15 15 16 18 20 21 19 16 16 16 14 12 11 13 13 14 15 16 17 18 18 20 21 21
21 18 14 13 13 13 13 13 13 13 13 11 10 10 10 9 7 8 9 9 10 11 12 13 13 13 12 10 9 10 11 10 13 14 11 10 10 11 12 13 14 14 13 13 11 12 12 11 10 12 15 17 16 15 16 17 16 14 14 15 14 14 15 16 18 19 21 21 20 19 17 16 17 15 13 12 12 12 14 16 17 17 18 19 20 22 23 23
20 17 14 14 13 13 13 13 13 13 13 12 11 10 9 9 9 10 10 11 12 12 14 14 12 12 11 9 9 8 9 12 14 13 11 10 11 12 12 12 14 14 13 13 13 13 13 14 15 17 17 17 16 16 17 17 16 15 16 15 15 17 18 18 19 19 20 20 18 18 18 18 17 13 11 13 13 14 16 18 18 19 20 21 22 24 25 25
19 17 15 15 15 15 14 14 14 14 13 13 12 11 10 10 10 11 11 12 13 12 13 13 10 11 12 10 9 10 12 13 13 12 12 12 11 13 13 12 13 14 13 14 14 14 15 17 18 19 18 17 18 19 20 20 18 16 16 16 17 19 18 17 18 18 19 20 19 19 20 20 18 14 13 15 15 15 19 20 19 21 23 24 25 26 27 28
20 19 17 15 15 16 15 15 15 14 13 13 13 12 12 11 11 12 12 13 13 12 13 13 11 11 12 12 12 13 14 14 13 14 14 13 12 14 14 14 13 13 14 15 15 15 17 19 18 17 18 18 18 19 20 19 16 15 16 17 18 19 18 17 18 18 20 21 20 21 22 21 19 16 15 17 17 18 20 22 23 24 26 27 28 29 30 31
20 19 16 15 16 17 17 16 16 15 14 14 13 12 12 12 12 13 13 14 14 13 13 13 12 12 12 13 15 15 15 14 14 15 15 14 14 14 15 15 15 14 15 16 17 17 17 18 18 17 18 20 19 18 18 16 14 15 17 19 19 19 20 20 19 19 20 21 21 23 23 20 17 16 16 17 19 21 22 24 25 26 28 29 30 31 33 33
20 19 16 15 17 19 18 18 17 16 15 14 14 13 13 13 14 14 14 14 14 14 14 14 14 14 14 15 16 15 15 15 16 16 16 15 15 14 15 15 16 16 18 19 19 18 17 17 18 18 19 20 19 17 17 18 18 18 19 20 20 19 20 20 20 20 20 20 20 21 24 21 16 16 19 19 21 24 25 26 28 29 31 32 33 33 34 35
20 19 18 17 19 20 19 18 17 15 15 14 14 15 15 16 16 16 15 15 16 15 15 15 16 16 16 16 16 15 15 16 17 17 17 16 16 16 15 15 17 18 19 19 18 17 17 17 19 21 20 20 19 19 20 20 20 19 20 20 19 18 19 20 20 21 21 21 21 22 25 26 21 21 24 23 23 26 27 29 31 33 34 35 35 36 37 38
21 21 21 22 22 21 20 18 16 16 16 16 16 17 17 17 18 18 17 17 17 16 16 16 17 17 17 17 17 17 17 17 18 18 18 18 17 16 15 16 18 20 19 18 18 17 17 19 21 22 21 21 22 22 22 21 20 19 19 19 18 18 19 20 20 22 23 25 25 25 28 30 26 26 27 24 22 25 26 29 33 34 35 36 37 39 40 42
23 24 25 24 22 21 20 19 18 17 17 17 18 19 18 18 19 18 18 17 17 17 17 18 18 18 18 18 18 19 19 18 19 19 19 19 18 15 15 17 19 20 20 18 17 17 18 19 20 22 22 22 23 22 21 19 18 18 19 19 19 20 21 22 23 25 27 28 28 27 30 32 29 27 27 25 23 25 27 30 34 36 36 38 40 42 44 45
25 26 26 24 22 22 21 20 19 19 18 18 19 19 19 19 20 19 19 18 18 19 19 20 19 19 18 19 19 20 19 18 19 19 19 20 18 16 18 19 19 21 20 17 17 18 19 18 19 22 22 20 20 18 16 15 17 19 21 21 22 24 25 26 27 27 29 31 31 29 30 33 32 30 30 30 30 32 33 33 36 38 40 42 44 45 46 47
26 26 24 24 22 22 21 21 21 21 21 21 20 21 21 20 20 20 20 20 20 20 20 20 20 20 20 20 21 21 21 20 20 20 20 20 19 18 19 19 20 21 18 17 18 20 20 20 19 20 20 20 19 17 17 18 21 23 24 25 26 28 28 29 29 29 30 32 34 32 32 35 35 33 33 34 35 37 39 38 39 41 43 45 46 46 46 47
26 25 24 24 23 22 23 23 23 23 22 22 21 22 22 21 21 21 21 22 22 21 21 21 21 22 22 22 22 22 22 22 22 21 21 21 20 20 20 20 21 19 17 17 20 21 21 21 20 21 22 22 23 23 23 25 26 27 28 29 30 30 30 30 29 30 31 32 35 35 34 37 37 35 36 37 38 39 40 41 42 43 43 44 45 45 44 44
26 25 25 24 23 23 23 23 22 22 22 22 22 23 23 23 23 21 21 21 22 22 22 22 22 22 22 22 23 23 23 23 23 23 23 23 23 22 22 22 22 19 18 20 21 21 21 21 22 23 25 26 27 28 28 28 29 30 31 32 31 31 31 31 30 32 31 32 34 35 35 37 38 37 38 39 39 39 40 41 42 42 43 44 44 44 44 44
28 27 26 25 24 24 24 23 24 24 24 24 24 25 25 25 24 23 22 23 23 23 22 22 23 23 24 23 23 23 23 23 24 24 24 24 24 23 23 24 23 21 21 23 22 20 21 22 23 25 27 28 28 29 29 29 30 31 32 33 33 33 32 32 33 34 32 32 35 37 38 39 38 37 38 38 39 40 41 42 42 43 45 45 44 44 45 44
29 29 29 28 27 27 27 28 28 28 28 27 27 26 26 26 26 26 25 24 24 23 23 24 24 24 24 25 24 24 24 24 24 24 24 24 25 24 24 25 25 23 23 24 22 20 22 23 24 26 28 29 29 29 30 31 32 33 33 33 33 33 33 33 35 35 34 36 37 38 40 40 37 37 38 39 39 40 41 42 43 44 44 44 43 44 44 43
31 31 30 30 30 29 29 30 30 30 30 29 28 28 27 28 28 27 26 26 25 25 25 25 25 25 26 26 26 25 25 25 26 26 25 25 25 25 25 26 25 24 24 24 22 22 23 25 25 26 28 29 29 30 31 31 32 32 32 33 33 34 35 35 35 34 34 35 36 37 39 38 36 37 38 38 39 40 41 42 43 43 43 43 43 43 43 43
33 32 31 31 32 31 30 30 30 30 29 28 28 28 28 28 28 28 28 28 27 26 26 27 27 26 27 28 28 28 27 27 28 28 27 27 27 27 26 26 25 25 25 25 24 24 25 26 27 27 28 29 29 29 31 31 31 33 34 34 34 34 33 33 31 31 32 34 35 36 37 36 35 36 38 39 40 41 42 43 43 42 42 42 42 43 43 42
34 33 32 32 33 32 32 31 31 31 30 29 29 29 30 30 29 28 28 28 28 28 28 28 28 27 28 29 29 28 27 27 28 28 28 28 30 30 30 30 30 29 27 27 27 27 26 27 27 27 29 30 29 30 31 31 31 31 31 30 29 30 31 31 31 32 33 33 33 34 35 36 37 38 39 40 40 41 42 43 42 41 42 42 42 42 42 42
Wind_Direction
345 343 341 339 338 336 335 333 331 330 328 326 323 320 318 317 314 312 314 317 322 325 331 339 342 344 346 348 351 354 355 349 349 349 343 356 13 11 11 33 49 143 146 107 140 148 113 14 342 354 8 12 7 9 9 8 4 1 358 355 359 3 9 2 352 358 353 341 340 340 335 336 336 338 339 330 332 330 330 335 315 306 308 264 240 360 354 332
348 345 343 341 338 337 335 334 333 332 330 329 325 321 319 316 313 310 310 312 316 321 326 336 342 345 346 349 353 356 356 350 342 335 335 349 3 10 13 28 56 128 138 139 167 171 116 31 7 4 359 357 358 10 14 12 5 359 358 354 343 352 3 357 346 354 352 344 342 336 334 338 335 333 333 324 332 334 326 334 325 319 321 252 286 318 302 300
350 348 346 343 341 338 337 336 335 334 333 331 328 323 318 315 312 308 308 308 311 315 320 330 339 343 345 349 354 358 357 348 340 342 354 3 3 7 17 35 89 128 141 154 163 164 54 0 359 352 342 340 344 360 10 9 5 3 356 347 338 343 351 349 345 348 345 342 339 337 337 332 327 326 327 327 329 325 317 326 333 340 357 260 290 290 288 289
353 350 348 346 344 341 340 340 339 338 336 333 330 324 319 313 309 308 307 306 306 308 315 324 334 340 341 348 357 6 4 354 11 33 28 23 18 23 40 67 115 131 148 174 189 58 325 335 340 336 334 331 324 323 344 352 354 360 349 335 333 335 337 339 342 341 337 338 336 335 332 326 330 333 330 326 323 320 315 318 329 341 352 260 272 278 287 278
357 354 351 349 349 348 348 347 345 341 337 333 328 323 319 312 309 308 306 303 301 302 308 317 328 335 335 345 3 15 13 15 36 37 30 27 25 40 55 82 128 137 150 245 306 325 305 316 323 326 332 334 329 314 310 324 332 337 332 324 323 324 325 329 332 331 331 333 330 328 330 334 337 333 327 322 321 327 324 319 320 314 295 270 263 274 278 262
-0 358 356 356 357 356 354 352 349 343 337 331 325 322 318 313 310 308 305 300 295 295 300 310 323 329 330 340 360 12 6 21 32 19 24 31 26 40 53 82 124 144 174 287 305 312 303 312 313 318 328 328 333 329 321 322 323 324 325 322 319 318 318 321 324 325 327 326 325 327 330 333 332 327 327 323 320 323 325 323 320 312 303 280 255 270 265 252
3 2 3 5 5 1 357 355 351 345 338 331 325 321 318 315 313 308 305 297 290 291 293 303 315 322 331 338 352 342 323 360 25 13 22 29 24 35 50 86 121 147 255 286 299 309 305 309 305 312 318 310 315 322 327 328 320 314 316 317 315 313 313 316 317 318 321 320 320 322 322 323 323 322 322 319 318 319 324 326 318 312 308 296 267 269 269 261
5 6 8 9 7 3 360 358 353 347 339 332 328 324 322 321 318 312 306 300 292 293 291 302 311 313 324 330 341 330 317 2 20 4 7 21 25 36 53 92 161 188 275 283 294 304 306 304 300 310 313 313 318 320 326 329 321 312 312 317 318 315 313 312 310 312 314 314 316 318 316 316 317 317 316 315 315 317 324 326 317 306 303 306 283 266 279 279
7 8 10 10 8 5 3 1 356 350 343 337 334 333 334 336 334 327 319 318 306 305 305 304 308 304 309 326 335 334 353 10 1 349 349 6 23 47 66 94 200 237 276 287 301 293 303 310 306 315 313 311 314 315 320 323 321 319 316 317 316 313 312 311 308 308 309 311 315 314 311 312 315 315 312 311 311 317 326 320 312 302 291 299 293 280 292 292
8 8 10 10 9 8 6 3 359 354 350 349 350 354 0 6 12 13 10 13 5 354 347 321 326 305 309 339 337 342 3 356 347 350 343 344 19 80 174 259 227 262 279 297 310 296 300 304 310 317 317 316 314 313 314 316 318 319 317 316 314 313 312 312 308 304 304 312 314 310 310 313 314 316 316 315 317 329 327 317 312 310 299 297 292 286 294 296
8 8 9 10 11 10 8 5 3 2 2 4 10 18 23 29 36 39 41 41 42 39 27 10 10 330 330 315 320 345 356 341 346 349 327 336 338 274 234 253 256 272 286 304 304 304 302 298 311 317 318 322 319 314 313 317 319 319 320 320 317 314 309 307 306 307 308 313 318 315 312 309 307 308 305 303 315 322 320 316 313 312 307 306 300 290 290 294
9 9 8 9 11 11 10 9 9 9 11 14 19 26 30 36 41 43 42 42 47 50 46 47 63 357 334 302 312 350 351 336 347 344 320 322 306 289 269 264 275 283 292 306 303 311 308 299 308 310 310 316 315 314 315 318 318 317 318 318 320 317 310 304 294 301 318 321 329 329 319 314 307 299 290 289 304 310 314 318 315 309 306 309 310 302 291 288
9 9 8 8 9 11 10 12 14 15 16 17 21 25 29 33 36 39 38 40 47 48 50 51 36 352 331 326 342 352 344 338 344 337 315 304 300 290 288 288 296 295 294 303 306 314 315 307 305 301 303 307 306 310 313 314 312 313 311 307 318 322 325 327 297 274 320 328 332 326 319 323 322 315 301 299 301 297 307 318 317 312 310 309 312 310 298 293
9 9 9 7 8 10 10 13 17 20 20 19 21 22 26 28 28 31 28 30 41 41 43 38 13 345 326 345 0 344 334 338 331 326 313 297 299 290 296 305 305 303 301 302 304 309 312 311 306 302 303 302 303 308 310 312 309 308 306 303 313 319 333 350 342 265 318 332 340 328 316 317 320 320 309 301 298 295 307 315 315 314 311 308 310 311 305 299
8 9 9 7 8 9 10 13 16 21 24 24 24 21 20 23 26 26 18 21 32 34 32 16 356 341 326 339 358 348 337 328 318 325 323 297 298 299 303 309 307 308 309 308 308 310 311 310 307 304 302 301 303 305 306 310 309 304 302 310 321 322 329 343 339 318 316 321 325 321 316 311 311 313 308 306 307 303 306 309 310 310 308 305 307 314 312 302
7 7 8 8 7 8 10 11 13 17 23 26 25 23 24 28 29 25 19 21 30 38 22 356 338 332 334 342 350 348 338 331 335 340 328 302 301 305 304 308 310 309 309 310 313 315 314 311 308 305 303 307 308 305 307 311 315 314 310 316 325 326 326 329 326 324 323 319 313 307 311 314 313 313 309 306 305 301 301 305 307 307 309 308 306 313 309 304
6 6 7 8 7 7 7 9 10 11 17 19 18 19 26 33 29 20 16 17 23 26 1 349 341 327 333 345 348 349 347 342 337 331 322 309 307 308 304 305 307 306 305 304 307 309 309 309 310 308 304 304 306 303 307 316 324 331 325 321 322 322 319 316 316 321 321 314 311 307 307 309 309 307 304 303 302 301 302 305 307 309 312 310 303 304 302 299
4 4 5 6 6 5 5 6 6 6 8 6 3 5 13 22 20 9 6 11 19 9 347 340 339 334 338 348 344 342 343 338 327 322 317 310 310 310 305 302 303 305 303 296 298 302 304 310 312 313 308 298 295 294 302 321 333 333 329 322 318 316 313 310 309 314 315 311 311 309 306 307 308 307 306 305 303 301 300 302 306 308 308 307 301 298 301 302
1 2 3 3 4 4 3 3 4 4 3 359 359 359 0 1 1 3 1 0 6 3 355 340 334 343 358 357 345 341 340 333 320 315 310 309 310 309 304 303 300 303 308 302 294 293 299 309 307 307 310 302 303 307 310 323 329 324 320 315 311 310 310 308 306 311 317 317 313 309 308 310 312 311 308 305 302 297 296 298 300 304 305 304 304 300 301 308
358 359 360 0 1 2 1 2 3 4 6 7 4 2 4 358 356 9 359 345 355 2 5 359 353 357 353 344 341 338 337 328 316 312 315 314 310 305 300 299 298 297 308 309 300 293 296 309 310 304 311 317 320 321 317 316 316 315 313 309 307 308 309 310 311 316 320 315 310 311 314 312 308 308 307 305 303 299 297 295 293 298 302 305 312 312 311 319
354 356 356 357 358 359 359 1 3 5 9 13 12 17 21 8 6 6 354 359 14 10 11 12 10 9 350 337 337 332 322 316 313 315 323 320 310 305 298 298 304 297 293 295 297 301 299 304 306 299 311 328 325 318 316 311 308 308 308 305 303 305 311 313 312 316 323 320 314 315 316 313 308 307 310 308 305 300 297 295 291 292 296 307 319 314 308 316
350 352 352 352 354 354 354 358 0 3 7 13 16 23 23 9 4 355 349 356 6 5 12 18 15 10 359 346 347 341 323 312 310 315 323 320 310 305 302 300 305 304 299 293 284 288 296 299 299 297 312 324 314 310 313 310 304 300 299 301 301 303 309 311 311 315 322 323 316 312 311 309 306 304 305 308 308 302 299 300 296 291 292 304 317 314 309 314
347 349 349 349 350 349 349 353 355 357 5 12 16 15 7 2 354 348 346 337 345 2 9 7 3 0 355 346 343 334 323 317 318 328 327 317 307 306 305 302 302 304 306 301 286 285 294 302 306 309 313 313 310 309 309 306 304 300 299 301 302 308 310 311 320 322 318 314 309 307 303 303 307 306 303 309 315 312 304 305 303 297 297 303 316 319 317 315
344 345 346 346 346 346 343 346 352 353 359 7 10 6 356 352 349 347 342 322 331 0 356 349 351 351 344 337 329 324 324 321 318 328 326 315 311 312 309 305 306 302 295 298 304 298 294 300 312 316 312 309 311 311 308 305 306 308 305 300 302 313 314 311 316 317 313 308 307 307 304 305 312 310 309 313 315 314 309 306 307 304 300 311 321 318 316 317
341 342 344 343 343 344 337 341 355 353 354 0 359 354 348 345 344 346 338 319 321 349 345 338 342 344 339 330 323 325 326 315 314 324 324 316 315 314 312 309 307 302 296 302 310 302 291 297 307 309 306 305 307 308 306 307 309 309 307 308 312 316 314 310 310 311 310 309 312 315 310 308 311 308 309 310 306 309 314 311 310 310 297 297 323 325 322 321
338 339 340 340 340 341 337 339 348 344 348 354 349 345 344 340 339 346 333 313 318 343 337 331 335 340 341 333 325 328 328 319 321 326 325 322 317 312 312 312 304 298 304 311 306 296 295 297 297 301 304 303 304 305 306 311 314 306 305 313 314 311 308 306 308 308 308 308 311 310 303 304 311 309 309 308 302 303 310 308 301 305 308 301 320 332 329 324
335 335 336 336 337 340 340 335 336 340 344 343 340 339 340 337 335 343 322 304 325 339 333 334 337 335 335 334 327 322 326 325 318 319 326 326 321 314 309 311 304 299 311 317 302 298 305 302 297 306 313 309 304 304 310 317 313 302 304 309 307 306 306 305 307 306 302 303 305 301 296 303 311 311 311 309 306 305 307 308 300 308 325 316 316 324 325 323
333 332 333 332 331 333 334 325 330 341 338 333 334 334 336 335 328 322 315 313 335 334 331 338 339 333 330 333 331 325 329 327 316 318 324 320 317 313 305 306 309 306 307 306 298 299 305 302 301 307 307 304 304 308 315 315 306 302 305 304 304 303 301 300 300 298 296 297 303 306 301 303 310 316 321 315 309 311 314 315 313 313 313 308 310 315 317 319
332 330 329 328 327 326 325 319 323 330 328 329 332 330 331 329 317 310 306 312 323 325 328 331 331 333 329 325 324 330 334 330 324 327 324 319 319 317 311 309 311 309 303 298 296 297 298 295 299 305 300 300 310 315 315 311 304 305 303 299 301 298 295 299 298 296 298 297 303 309 302 300 308 315 321 314 304 305 310 309 308 311 312 309 308 310 311 313
330 328 326 325 323 323 321 312 311 320 323 328 329 324 321 317 304 297 298 309 319 321 323 327 330 332 330 323 314 328 332 328 329 328 322 321 316 318 324 318 311 311 307 301 295 295 296 287 289 303 302 303 313 315 313 310 309 310 306 303 305 304 303 306 303 300 301 300 304 307 305 305 305 309 317 316 310 307 306 305 301 303 311 314 311 311 311 310
328 326 324 321 317 319 317 309 313 318 319 324 325 314 305 303 297 296 303 308 309 316 318 324 333 332 328 326 319 329 329 325 333 329 322 324 312 315 332 331 323 317 312 310 305 307 307 293 293 308 310 311 311 313 315 314 316 318 315 312 313 313 312 309 309 310 305 303 307 312 320 319 308 311 320 316 313 312 306 302 301 301 306 311 313 315 315 313
326 323 321 315 309 312 309 306 313 314 312 318 316 303 295 292 290 300 314 306 298 316 322 319 327 328 326 321 315 328 328 321 333 331 325 326 317 319 332 334 331 322 318 322 320 316 308 301 310 311 319 325 313 314 321 318 321 321 316 319 319 315 316 316 315 313 305 302 311 319 324 321 306 308 320 318 313 312 305 299 299 300 304 307 311 313 314 314
322 320 317 312 308 307 303 305 309 306 309 314 306 295 294 290 290 298 309 313 307 314 317 313 318 320 318 317 316 325 322 315 328 331 327 322 316 322 334 339 336 325 321 323 320 318 307 306 317 307 315 330 318 315 321 319 321 319 314 318 316 311 316 316 312 310 306 304 311 317 317 314 305 304 314 319 317 314 309 305 304 304 305 305 308 310 311 314
318 315 312 311 308 302 299 301 302 300 304 306 295 289 289 289 294 295 298 316 318 311 312 314 314 310 303 307 321 328 322 315 322 324 321 318 316 318 324 338 341 328 320 317 317 321 310 307 325 316 308 317 316 314 317 316 315 312 312 311 308 313 318 312 310 311 309 306 308 311 311 309 308 309 309 306 309 313 311 309 308 306 306 305 306 308 309 310
314 310 306 308 307 300 298 297 295 296 299 296 288 286 285 287 297 302 299 308 311 309 312 310 306 306 299 292 306 324 324 319 321 321 316 313 318 319 316 324 334 329 321 316 315 315 302 294 315 321 311 311 314 313 313 315 311 309 314 309 305 317 316 307 305 304 304 305 306 307 305 304 308 317 320 308 306 314 314 312 310 307 307 308 308 308 308 308
310 307 303 303 303 302 301 297 294 294 291 287 285 285 286 286 295 302 299 300 303 306 310 307 302 307 310 299 298 312 318 315 317 319 314 308 313 319 319 320 324 324 321 316 310 307 299 293 302 311 310 309 310 310 309 308 305 307 309 303 307 314 309 303 303 302 302 302 303 305 304 305 307 315 327 320 310 309 311 313 314 313 313 311 309 309 309 308
306 303 297 295 300 304 302 298 295 291 285 281 281 282 285 286 292 297 296 297 300 300 304 307 306 309 311 307 305 314 319 316 315 316 313 308 308 314 318 318 318 318 317 313 306 303 301 298 300 305 306 306 307 307 305 299 293 296 299 301 310 310 303 300 301 303 303 299 301 304 303 307 309 306 316 318 308 303 307 311 312 312 312 309 307 307 307 307
301 298 291 289 297 303 301 297 294 289 283 278 274 273 279 284 288 292 295 296 296 295 297 300 304 307 306 303 306 313 315 313 313 314 311 308 307 311 313 314 317 317 314 311 304 301 302 298 298 301 301 306 310 306 304 300 290 287 294 302 307 306 303 302 300 302 303 301 302 301 298 302 302 301 313 317 309 306 307 308 308 308 307 306 306 305 305 305
295 293 289 290 297 301 298 295 291 284 278 276 274 273 276 282 286 288 292 294 291 291 294 296 299 300 299 300 303 306 308 307 309 310 309 307 306 309 310 308 310 314 314 310 304 299 299 296 295 299 302 307 308 302 301 305 302 298 300 302 303 302 301 300 297 299 301 301 302 302 302 302 298 303 318 321 314 311 308 306 304 304 304 303 303 303 303 303
291 288 286 293 299 299 296 292 286 280 276 275 277 278 277 280 285 287 288 290 288 286 288 293 294 293 295 298 299 302 304 302 303 302 302 302 302 306 312 308 305 309 311 308 303 299 297 294 294 299 303 304 302 298 299 303 303 301 301 302 302 301 300 298 297 296 298 299 300 301 301 300 298 305 315 316 312 309 308 306 302 302 303 303 302 302 301 301
286 280 281 294 300 298 297 290 282 279 278 275 274 278 281 280 282 284 285 284 283 282 283 288 289 289 291 292 294 299 301 298 298 298 298 299 299 302 308 309 306 308 310 307 304 302 299 296 296 298 301 300 298 298 300 299 299 301 301 300 300 300 299 298 296 296 297 298 299 299 297 296 298 303 306 306 304 304 306 305 303 303 303 303 302 302 300 299
280 276 281 292 295 294 294 287 279 277 277 276 276 277 279 279 278 281 283 282 281 280 280 283 286 286 287 287 290 295 296 295 294 295 296 297 300 301 302 306 306 308 309 306 304 306 302 296 294 295 295 296 296 296 294 292 294 299 300 298 297 299 301 299 298 299 298 296 298 297 293 294 300 302 301 301 302 304 306 305 303 303 303 303 302 302 301 300
279 280 283 285 286 288 288 282 278 277 275 276 279 276 276 278 278 280 281 279 280 280 279 281 283 283 284 285 287 290 293 293 291 291 292 295 299 301 300 304 306 306 306 303 302 306 304 297 295 297 297 297 297 295 291 287 289 295 300 299 297 300 303 301 300 301 298 295 296 295 291 295 301 302 300 300 300 304 308 308 306 304 303 303 302 302 301 300
281 281 281 280 278 281 281 277 277 278 277 278 278 276 276 277 277 278 280 278 279 280 280 281 281 280 281 283 285 287 290 291 290 291 292 294 296 296 297 302 304 302 302 302 302 305 303 299 300 301 301 302 303 302 297 291 293 298 302 300 297 300 302 300 299 298 295 294 294 292 291 296 300 300 299 299 298 300 304 306 305 304 303 302 302 302 301 301
281 279 279 278 275 275 276 276 277 277 278 278 278 278 278 276 274 276 279 278 277 279 280 280 279 280 280 281 283 285 286 286 288 291 293 293 293 293 296 301 301 299 302 305 305 303 299 296 296 297 298 300 302 303 303 301 299 299 299 298 298 300 300 299 298 296 294 294 293 291 292 296 299 300 300 299 299 299 300 301 301 301 302 303 303 302 301 301
280 279 279 278 275 275 274 274 275 274 276 278 278 279 278 277 276 274 274 278 278 277 278 278 279 280 280 280 281 283 284 284 284 287 289 290 292 293 295 298 298 297 301 304 301 299 296 293 290 287 289 292 294 296 300 301 298 297 297 297 297 297 297 297 295 293 294 296 294 292 294 297 298 300 300 299 300 299 299 300 300 302 304 305 303 302 302 302
276 277 279 278 276 276 273 272 272 272 275 277 278 278 277 277 279 275 271 276 278 277 278 278 279 279 279 279 280 282 284 284 283 284 286 287 289 291 290 294 299 297 295 297 295 294 293 290 289 287 287 289 292 294 296 296 294 294 295 295 296 295 295 293 292 292 294 294 293 295 298 298 299 300 300 300 301 301 301 302 303 303 304 304 303 303 303 304
274 275 278 277 274 273 272 274 277 276 276 277 277 277 276 276 277 275 272 274 275 276 278 279 277 277 277 278 279 281 283 284 284 285 286 287 289 290 289 293 297 294 293 294 291 290 292 290 290 291 290 291 292 293 294 294 293 293 294 294 294 294 293 292 291 292 293 291 293 298 298 297 298 301 301 302 303 302 303 304 305 304 303 302 303 304 304 304
274 274 275 275 273 272 272 275 278 277 275 276 276 275 275 274 274 274 274 273 272 272 275 277 277 278 278 277 277 278 280 283 285 286 288 288 288 289 290 293 293 290 292 294 290 289 292 292 292 293 292 292 293 293 293 292 292 292 292 293 294 294 293 293 293 293 292 291 293 296 295 296 300 302 303 303 303 304 304 304 303 303 303 303 304 304 304 304
272 273 274 275 273 273 273 274 274 274 273 274 274 273 273 273 273 273 273 272 271 271 273 275 276 277 279 278 276 276 278 281 284 286 288 288 287 287 289 291 291 290 290 292 290 290 292 292 294 295 293 293 293 292 292 292 292 294 295 295 296 295 294 294 293 294 294 294 296 298 297 299 302 303 303 304 304 304 304 303 302 303 304 304 304 303 304 304
270 271 273 273 272 272 272 272 272 272 272 272 273 273 272 271 272 273 272 272 271 270 271 275 276 277 278 278 275 275 278 281 282 283 284 285 287 287 288 289 290 290 288 288 288 290 291 292 294 293 292 294 295 295 295 296 296 296 296 296 295 295 296 296 297 298 299 300 301 300 300 301 303 304 303 303 303 303 303 303 304 304 303 303 303 303 303 303
270 271 271 271 271 271 271 271 270 270 270 270 271 272 271 271 272 272 273 274 273 271 271 274 276 277 278 277 276 278 281 284 285 286 285 286 286 286 286 286 286 286 286 285 286 287 288 290 292 291 291 294 296 296 298 299 297 296 297 298 298 298 299 300 299 299 300 301 300 300 300 301 303 303 302 302 303 303 303 304 304 304 304 303 303 302 302 302